Regional Weather Roundup
Issued by NWS

Home | Current Version | Previous Version | Text Only | Print | Product List | Glossary Off
Versions: 1 2 3 4 5 6 7 8 9 10 11 12 13 14 15 16 17 18 19 20 21 22 23 24 25 26 27 28 29 30 31 32 33 34 35 36 37 38 39 40 41 42 43 44 45 46 47 48 49 50

000
ASUS43 KMPX 270701
RWRMN
WEATHER ROUNDUP FOR MINNESOTA
NATIONAL WEATHER SERVICE TWIN CITIES/CHANHASSEN MN
200 AM CDT FRI MAY 27 2016


NOTE: "FAIR" INDICATES FEW OR NO CLOUDS BELOW 12,000 FEET WITH NO
SIGNIFICANT WEATHER AND/OR OBSTRUCTIONS TO VISIBILITY. N/A MEANS
CURRENT SKY AND/OR WEATHER CONDITIONS ARE NOT AVAILABLE.

MNZ060>063-068>070-270800-
   Twin Cities Metro

CITY           SKY/WX    TMP DP  RH WIND       PRES   REMARKS
TWIN CITIES    CLOUDY    70  53  54 S7        29.85R
ST PAUL        CLOUDY    62  58  86 SE7       29.86R
CRYSTAL        CLOUDY    64  54  69 CALM      29.82F
BLAINE         CLOUDY    64  57  77 CALM      29.84S
EDEN PRAIRIE   CLOUDY    67  55  65 S3        29.84R
SOUTH ST PAUL  PTCLDY    66  56  72 S3        29.86R
LAKE ELMO      FAIR      59  57  94 CALM      29.86R
$$
MNZ001>005-007-008-013>017-022>024-027-028-270800-
   Northwest Minnesota

CITY           SKY/WX    TMP DP  RH WIND       PRES   REMARKS
BEMIDJI        CLOUDY    54  51  88 CALM      29.81S
HALLOCK        CLEAR     52  50  93 SW3       29.78R
ROSEAU         CLEAR     54  48  82 SW3       29.78S
WARROAD        PTCLDY    54  50  87 S5        29.78S
THIEF RVR FALL CLOUDY    55  52  88 S5        29.82R
CROOKSTON      CLOUDY    57  55  94 SW7       29.81S
FOSSTON        HVY RAIN  55  54  94 NW14      29.84R
DETROIT LAKES  CLOUDY    61  54  77 S6        29.83R
MOORHEAD       CLOUDY    57  55  94 N7        29.83S
PARK RAPIDS    CLOUDY    59  51  75 SE3       29.81F
MAHNOMEN       RAIN      59  54  84 N13       29.82R
$$
MNZ006-009>011-018-025>026-270800-
   North Central Minnesota

CITY           SKY/WX    TMP DP  RH WIND       PRES   REMARKS
BAUDETTE       CLEAR     52  50  93 S6        29.80R
FLAG ISLAND    CLEAR     55  54  94 SW7       29.76R
INTL FALLS     CLEAR     51  49  92 CALM      29.80R
WASKISH        CLEAR     55  52  88 CALM      29.81
BIG FORK       CLOUDY    50  48  93 CALM      29.83S
LONGVILLE      CLOUDY    50  50 100 CALM      29.83S
GRAND RAPIDS   CLOUDY    53  50  89 CALM      29.84F
CRANE LAKE     CLOUDY    48  46  93 CALM      29.84R
ORR            CLOUDY    54  50  87 CALM      29.81R
COOK           CLOUDY    50  48  93 CALM      29.85R
WALKER         FAIR      53  52  96 CALM      29.82F
$$
MNZ012-019>021-037-270800-
   Northeast Minnesota

CITY           SKY/WX    TMP DP  RH WIND       PRES   REMARKS
DULUTH         CLOUDY    51  47  86 CALM      29.86R
ELY            PTCLDY    54  52  94 CALM      29.85R
HIBBING        PTCLDY    46  46 100 CALM      29.84R
EVELETH        CLOUDY    52  52 100 CALM      29.85F
DULUTH HARBOR  FOG       48  46  93 CALM      29.87S VSB 1/4
TWO HARBORS    HAZE      46  43  87 CALM      29.85R VSB 3/4
SILVER BAY     CLOUDY    46  46 100 CALM      29.84R VSB 1
GRAND MARAIS     N/A     44  43  96 SW3       29.85S
G MARAIS ARPRT CLOUDY    50  48  93 SW3       29.86R
$$
MNZ029>031-032-039>041-046>048-054>057-064-270800-
   West Central Minnesota

CITY           SKY/WX    TMP DP  RH WIND       PRES   REMARKS
FERGUS FALLS   CLOUDY    63  52  67 CALM      29.78F
WHEATON        CLEAR     61  54  77 CALM      29.80F
MORRIS         CLOUDY    57  48  72 NE6       29.81R
ALEXANDRIA     CLOUDY    60  49  66 SE6       29.82F
ELBOW LAKE     FAIR      60  52  74 NW3       29.81F
WADENA         CLOUDY    55  50  82 CALM      29.82S
GLENWOOD       CLOUDY    61  52  72 CALM      29.82F
APPLETON       CLOUDY    61  52  72 NW5       29.80R
ORTONVILLE     PTCLDY    63  54  72 N3        29.80S
MADISON        CLOUDY    57  52  82 CALM      29.80S
WILLMAR        FAIR      63  55  77 SE6       29.83F
$$
MNZ033>034-036-042>043-049>051-058-059-270800-
   Central Minnesota

CITY           SKY/WX    TMP DP  RH WIND       PRES   REMARKS
ST CLOUD       CLOUDY    60  54  80 SE7       29.83S
SAUK CENTRE    FAIR      57  52  82 CALM      29.81F
PAYNESVILLE    MOCLDY    64  56  73 SE12      29.83S
AITKIN         CLOUDY    54  48  82 CALM      29.83R
PINE RIVER     PTCLDY    54  54 100 CALM      29.87R
BRAINERD       MOCLDY    57  50  77 SE5       29.83F
STAPLES        CLOUDY    55  50  82 CALM      29.83R
LITTLE FALLS   CLOUDY    54  52  94 CALM      29.83F
LITCHFIELD     CLOUDY    64  59  82 CALM      29.84F
BUFFALO        CLOUDY    64  55  71 CALM      29.84F
MAPLE LAKE     CLOUDY    63  58  82 CALM      29.85S
HUTCHINSON     CLEAR     64  58  80 CALM      29.84F
$$
MNZ037-044-045-052-053-270800-
   East Central Minnesota

CITY           SKY/WX    TMP DP  RH WIND       PRES   REMARKS
PRINCETON      MOCLDY    59  55  88 CALM      29.84S
MORA           CLOUDY    54  50  87 CALM      29.87S
CAMBRIDGE      CLOUDY    63  52  67 CALM      29.82S
RUSH CITY      CLOUDY    54  52  92 CALM      29.85S
MOOSE LAKE     PTCLDY    50  48  93 CALM      29.85R
HINCKLEY       FAIR      52  52 100 CALM      29.84F
CLOQUET        CLOUDY    46  45  93 CALM      29.85S
MCGREGOR       CLOUDY    54  50  87 CALM      29.85R
$$
MNZ071>073-080-081-089-090-097-098-270800-
   Southwest Minnesota

CITY           SKY/WX    TMP DP  RH WIND       PRES   REMARKS
MONTEVIDEO     CLOUDY    63  50  63 S5        29.82F
GRANITE FALLS  CLOUDY    64  53  66 CALM      29.82F
CANBY          CLOUDY    60  55  81 CALM      29.81F
MARSHALL       CLOUDY    64  55  72 S5        29.80F
REDWOOD FALLS  CLOUDY    64  56  75 S5        29.80F
OLIVIA         CLOUDY    63  52  67 SE5       29.81F
PIPESTONE      CLOUDY    63  55  77 S8        29.83F
WINDOM         CLOUDY    63  57  82 CALM      29.82F
WORTHINGTON    CLOUDY    61  58  90 CALM      29.85F
JACKSON        CLOUDY    61  55  82 CALM      29.84F
TRACY          CLOUDY    65  58  75 S8        29.82F
SLAYTON        CLOUDY    60  57  89 S5        29.84F
$$
MNZ065>067-074>077-082>085-091>093-270800-
   South Central Minnesota

CITY           SKY/WX    TMP DP  RH WIND       PRES   REMARKS
MANKATO        CLOUDY    66  57  72 E6        29.83F
NEW ULM        CLOUDY    64  55  72 S6        29.82F
ST JAMES       CLOUDY    61  54  77 CALM      29.82F
FAIRMONT       CLOUDY    63  55  77 E7        29.84R
FARIBAULT      CLOUDY    66  57  72 SE2       29.87S
OWATONNA       CLOUDY    66  55  68 CALM      29.86F
WASECA         CLOUDY    63  55  77 E6        29.86F
ALBERT LEA     PTCLDY    64  55  72 S5        29.86R
$$
MNZ078>079-086>088-094>096-270800-
   Southeast Minnesota

CITY           SKY/WX    TMP DP  RH WIND       PRES   REMARKS
ROCHESTER      CLOUDY    64  59  83 CALM      29.88F
RED WING       CLOUDY    63  61  94 NE1       29.86R
STANTON        CLOUDY    68  58  71 CALM      29.85S
DODGE CENTER   CLOUDY    64  55  72 SW3       29.88S
WINONA         CLOUDY    64  61  88 CALM      29.88R
AUSTIN         CLOUDY    63  57  82 CALM      29.87S
PRESTON        CLOUDY    63  56  80 CALM      29.89S
$$
ABBREVIATIONS USED IN REMARKS
   TC - TEMPERATURES IN CELSIUS
  WCI - WIND CHILL INDEX
   HX - HEAT INDEX
  VSB - VISIBILITY
$$



USA.gov is the U.S. government's official web portal to all federal, state and local government web resources and services.